Estación Meteorológica Peña el Pijo (Robertgarden) [ 09/29/20 12:30:28 CEST ]

Fecha Hora Presion(HPa) Temp (°C) Humedad % Rocio (°C) Viento ( m/s) Direccion Lluvia 1Hora(mm) Lluvia 24H(mm) LLuvia Total(mm)
2020-Feb-29 01:09:03 1007.700 - - - - N     39.88
2020-Feb-29 02:09:43 1007.300 - - - - N     39.88
2020-Feb-29 03:09:43 1006.600 - - - - N     39.88
2020-Feb-29 04:10:00 1005.900 - - - - N     39.88
2020-Feb-29 05:09:38 1006.000 - - - - N     39.88
2020-Feb-29 06:09:23 1006.000 - - - - N     39.88
2020-Feb-29 07:09:13 1006.200 - - - - N     39.88
2020-Feb-29 08:08:53 1006.200 - - - - N     39.88
2020-Feb-29 09:09:00 1006.800 - - - - N     39.88
2020-Feb-29 10:08:48 1006.600 - - - - N     39.88
2020-Feb-29 11:09:16 1006.800 - - - - N     39.88
2020-Feb-29 12:09:09 1006.600 - - - - N     39.88
2020-Feb-29 13:09:04 1006.500 - - - - N     39.88
2020-Feb-29 14:09:11 1005.600 - - - - N     39.88
2020-Feb-29 15:09:04 1005.200 - - - - N     39.88
2020-Feb-29 16:09:09 1004.900 - - - - N     39.88
2020-Feb-29 17:09:13 1004.500 - - - - N     39.88
2020-Feb-29 18:09:09 1005.000 - - - - N     39.88
2020-Feb-29 19:09:23 1005.600 - - - - N     39.88
2020-Feb-29 20:08:49 1005.800 - - - - N     39.88
2020-Feb-29 21:09:12 1006.300 - - - - N     39.88
2020-Feb-29 22:09:27 1006.300 - - - - N     39.88
2020-Feb-29 23:09:28 1005.900 - - - - N     39.88

Temperatura Máxima:    Temperatura Mínima:
Presión Máxima:1007.700 Hpa    Presión Mínima:1004.500 Hpa


Volver